| time (UTC) | temp C | wind direction | speed KPH | gust KPH | rain 1hr cm | rain 24hr cm | rain mn cm | humidity % | barometer mb |
| 20260904145005 | 32 | 52 | 0.0 | 0.0 | 0.00 | 0.00 | 0.00 | 49 | 1012.5 |
| 20260904143004 | 31 | 30 | 0.0 | 0.0 | 0.00 | 0.00 | 0.00 | 49 | 1012.4 |
| 20260904142005 | 31 | 320 | 0.0 | 0.0 | 0.00 | 0.00 | 0.00 | 50 | 1012.3 |
| 20260904141005 | 31 | 22 | 0.0 | 3.2 | 0.00 | 0.00 | 0.00 | 51 | 1012.4 |
| 20260904135005 | 32 | 193 | 0.0 | 0.0 | 0.00 | 0.00 | 0.00 | 49 | 1013.1 |
| 20260904134005 | 31 | 212 | 0.0 | 0.0 | 0.00 | 0.00 | 0.00 | 50 | 1013.1 |
| 20260904133005 | 31 | 270 | 0.0 | 0.0 | 0.00 | 0.00 | 0.00 | 49 | 1013.0 |
| 20260904131005 | 32 | 270 | 0.0 | 0.0 | 0.00 | 0.00 | 0.00 | 46 | 1013.0 |
| 20260904130004 | 32 | 270 | 0.0 | 0.0 | 0.00 | 0.00 | 0.00 | 47 | 1013.3 |
| 20260904125005 | 32 | 270 | 0.0 | 0.0 | 0.00 | 0.00 | 0.00 | 48 | 1012.9 |
| 20260904124005 | 31 | 327 | 0.0 | 0.0 | 0.00 | 0.00 | 0.00 | 50 | 1012.9 |
| 20260904123005 | 31 | 270 | 0.0 | 0.0 | 0.00 | 0.00 | 0.00 | 50 | 1013.2 |
| 20260904122005 | 30 | 280 | 0.0 | 0.0 | 0.00 | 0.00 | 0.00 | 51 | 1013.4 |
| 20260904121005 | 30 | 270 | 0.0 | 1.6 | 0.00 | 0.00 | 0.00 | 53 | 1013.7 |
| 20260904114004 | 28 | 10 | 0.0 | 0.0 | 0.00 | 0.00 | 0.00 | 56 | 1012.9 |
| 20260904112005 | 27 | 282 | 1.6 | 1.6 | 0.00 | 0.00 | 0.00 | 61 | 1013.5 |
| 20260904111005 | 27 | 287 | 0.0 | 4.8 | 0.00 | 0.00 | 0.00 | 64 | 1013.1 |
| 20260904105005 | 27 | 356 | 0.0 | 1.6 | 0.00 | 0.00 | 0.00 | 61 | 1013.6 |
| 20260904104005 | 27 | 29 | 0.0 | 0.0 | 0.00 | 0.00 | 0.00 | 62 | 1013.6 |
| 20260904103005 | 27 | 264 | 0.0 | 3.2 | 0.00 | 0.00 | 0.00 | 61 | 1013.8 |
| 20260904102005 | 26 | 136 | 1.6 | 9.7 | 0.00 | 0.00 | 0.00 | 62 | 1013.8 |
| 20260904100005 | 25 | 235 | 6.4 | 22.5 | 0.00 | 0.00 | 0.00 | 66 | 1013.6 |
| 20260904095004 | 23 | 171 | 4.8 | 20.9 | 0.00 | 0.00 | 0.00 | 73 | 1012.5 |
| 20260904094005 | 23 | 30 | 17.7 | 20.9 | 0.00 | 0.00 | 0.00 | 76 | 1012.5 |
| 20260904093004 | 23 | 26 | 8.0 | 12.9 | 0.00 | 0.00 | 0.00 | 73 | 1013.5 |
| 20260904092004 | 24 | 42 | 0.0 | 0.0 | 0.00 | 0.00 | 0.00 | 72 | 1013.9 |
| 20260904091004 | 23 | 215 | 0.0 | 0.0 | 0.00 | 0.00 | 0.00 | 73 | 1013.9 |
| 20260904090004 | 23 | 81 | 0.0 | 0.0 | 0.00 | 0.00 | 0.00 | 76 | 1013.4 |
| 20260904082005 | 23 | 270 | 0.0 | 0.0 | 0.00 | 0.00 | 0.00 | 76 | 1013.3 |
| 20260904081004 | 23 | 35 | 0.0 | 0.0 | 0.00 | 0.00 | 0.00 | 77 | 1013.5 |
| 20260904080004 | 23 | 125 | 0.0 | 0.0 | 0.00 | 0.00 | 0.00 | 77 | 1013.8 |
| 20260904074005 | 22 | 167 | 0.0 | 0.0 | 0.00 | 0.00 | 0.00 | 77 | 1013.5 |
| 20260904073004 | 22 | 192 | 0.0 | 1.6 | 0.00 | 0.00 | 0.00 | 79 | 1013.6 |
| 20260904072005 | 22 | 118 | 0.0 | 1.6 | 0.00 | 0.00 | 0.00 | 81 | 1013.1 |
| 20260904071004 | 22 | 270 | 0.0 | 0.0 | 0.00 | 0.00 | 0.00 | 87 | 1013.1 |
| 20260904070006 | 21 | 22 | 0.0 | 0.0 | 0.00 | 0.00 | 0.00 | 88 | 1013.0 |
| 20260904065005 | 21 | 21 | 0.0 | 1.6 | 0.00 | 0.00 | 0.00 | 90 | 1012.6 |
| 20260904064006 | 21 | 262 | 3.2 | 8.0 | 0.00 | 0.00 | 0.00 | 88 | 1012.6 |
| 20260904063006 | 21 | 58 | 0.0 | 0.0 | 0.00 | 0.00 | 0.00 | 87 | 1012.0 |
| 20260904061007 | 22 | 270 | 0.0 | 0.0 | 0.00 | 0.00 | 0.00 | 81 | 1012.0 |
| 20260904060006 | 22 | 202 | 0.0 | 0.0 | 0.00 | 0.00 | 0.00 | 81 | 1011.5 |
| 20260904055006 | 22 | 45 | 0.0 | 0.0 | 0.00 | 0.00 | 0.00 | 75 | 1011.6 |
| 20260904054005 | 22 | 209 | 0.0 | 0.0 | 0.00 | 0.00 | 0.00 | 76 | 1011.6 |
| 20260904053006 | 22 | 90 | 0.0 | 0.0 | 0.00 | 0.00 | 0.00 | 83 | 1011.6 |
| 20260904052006 | 22 | 7 | 0.0 | 0.0 | 0.00 | 0.00 | 0.00 | 83 | 1011.3 |
| 20260904050005 | 22 | 89 | 0.0 | 0.0 | 0.00 | 0.00 | 0.00 | 81 | 1011.1 |
| 20260904044005 | 23 | 0 | 0.0 | 0.0 | 0.00 | 0.00 | 0.00 | 73 | 1010.8 |
| 20260904042005 | 23 | 52 | 0.0 | 0.0 | 0.00 | 0.00 | 0.00 | 72 | 1011.2 |
| 20260904041006 | 22 | 119 | 0.0 | 0.0 | 0.00 | 0.00 | 0.00 | 74 | 1011.6 |
| 20260904040005 | 22 | 206 | 0.0 | 0.0 | 0.00 | 0.00 | 0.00 | 74 | 1011.8 |
| 20260904035006 | 22 | 295 | 0.0 | 0.0 | 0.00 | 0.00 | 0.00 | 73 | 1011.8 |
| 20260904033005 | 23 | 180 | 0.0 | 0.0 | 0.00 | 0.00 | 0.00 | 70 | 1011.9 |
| 20260904032005 | 22 | 107 | 0.0 | 0.0 | 0.00 | 0.00 | 0.00 | 74 | 1011.9 |
| 20260904031005 | 22 | 190 | 0.0 | 12.9 | 0.00 | 0.00 | 0.00 | 75 | 1012.2 |
| 20260904030006 | 22 | 163 | 3.2 | 14.5 | 0.00 | 0.00 | 0.00 | 75 | 1012.4 |
| 20260904025007 | 21 | 227 | 19.3 | 20.9 | 0.00 | 0.00 | 0.00 | 77 | 1010.8 |
| 20260904024049 | 22 | 225 | 0.0 | 0.0 | 0.00 | 0.00 | 0.00 | 76 | 1010.8 |
| 20260904022005 | 23 | 225 | 0.0 | 0.0 | 0.00 | 0.00 | 0.00 | 69 | 1010.6 |
| 20260904021005 | 24 | 28 | 0.0 | 0.0 | 0.00 | 0.00 | 0.00 | 66 | 1010.7 |
| 20260904020005 | 24 | 112 | 0.0 | 0.0 | 0.00 | 0.00 | 0.00 | 63 | 1011.0 |
| 20260904015005 | 24 | 99 | 0.0 | 0.0 | 0.00 | 0.00 | 0.00 | 65 | 1011.2 |
| 20260904012006 | 23 | 148 | 0.0 | 9.7 | 0.00 | 0.00 | 0.00 | 70 | 1011.7 |
| 20260904011005 | 23 | 202 | 0.0 | 0.0 | 0.00 | 0.00 | 0.00 | 76 | 1011.3 |
| 20260904010005 | 25 | 332 | 0.0 | 1.6 | 0.00 | 0.00 | 0.00 | 69 | 1011.2 |
| 20260904004005 | 25 | 45 | 0.0 | 0.0 | 0.00 | 0.00 | 0.00 | 69 | 1011.5 |
| 20260904003005 | 25 | 40 | 0.0 | 0.0 | 0.00 | 0.00 | 0.00 | 68 | 1011.4 |
| 20260904002005 | 25 | 39 | 0.0 | 0.0 | 0.00 | 0.00 | 0.00 | 66 | 1011.3 |
| 20260904001005 | 25 | 72 | 0.0 | 0.0 | 0.00 | 0.00 | 0.00 | 63 | 1011.5 |
| 20260904000005 | 26 | 191 | 0.0 | 0.0 | 0.00 | 0.00 | 0.00 | 62 | 1011.6 |
| 20260903235006 | 26 | 126 | 0.0 | 0.0 | 0.00 | 0.00 | 0.00 | 62 | 1011.8 |
| 20260903234005 | 26 | 147 | 0.0 | 0.0 | 0.00 | 0.00 | 0.00 | 62 | 1011.8 |
| 20260903233005 | 26 | 179 | 0.0 | 0.0 | 0.00 | 0.00 | 0.00 | 63 | 1012.0 |
| 20260903232005 | 26 | 180 | 0.0 | 3.2 | 0.00 | 0.00 | 0.00 | 63 | 1011.9 |
| 20260903231006 | 26 | 185 | 0.0 | 0.0 | 0.00 | 0.00 | 0.00 | 62 | 1011.6 |
| 20260903230007 | 26 | 197 | 0.0 | 0.0 | 0.00 | 0.00 | 0.00 | 61 | 1011.5 |
| 20260903224005 | 26 | 173 | 0.0 | 8.0 | 0.00 | 0.00 | 0.00 | 63 | 1011.4 |
| 20260903223005 | 26 | 199 | 8.0 | 9.7 | 0.00 | 0.00 | 0.00 | 63 | 1011.2 |
| 20260903222005 | 28 | 128 | 0.0 | 0.0 | 0.00 | 0.00 | 0.00 | 56 | 1010.9 |
| 20260903221005 | 28 | 71 | 0.0 | 0.0 | 0.00 | 0.00 | 0.00 | 55 | 1011.0 |
| 20260903220005 | 28 | 24 | 0.0 | 0.0 | 0.00 | 0.00 | 0.00 | 54 | 1011.0 |
| 20260903215006 | 28 | 23 | 0.0 | 0.0 | 0.00 | 0.00 | 0.00 | 53 | 1011.0 |
| 20260903214005 | 29 | 35 | 0.0 | 0.0 | 0.00 | 0.00 | 0.00 | 52 | 1011.0 |
| 20260903213005 | 29 | 45 | 0.0 | 0.0 | 0.00 | 0.00 | 0.00 | 51 | 1011.0 |
| 20260903212005 | 30 | 55 | 0.0 | 0.0 | 0.00 | 0.00 | 0.00 | 50 | 1011.0 |
| 20260903211005 | 30 | 45 | 0.0 | 0.0 | 0.00 | 0.00 | 0.00 | 49 | 1010.8 |
| 20260903210006 | 30 | 58 | 0.0 | 0.0 | 0.00 | 0.00 | 0.00 | 47 | 1010.7 |
| 20260903205005 | 31 | 35 | 0.0 | 11.3 | 0.00 | 0.00 | 0.00 | 46 | 1010.5 |
| 20260903204005 | 31 | 58 | 9.7 | 12.9 | 0.00 | 0.00 | 0.00 | 45 | 1010.5 |
| 20260903203005 | 31 | 45 | 11.3 | 14.5 | 0.00 | 0.00 | 0.00 | 44 | 1010.5 |
| 20260903202005 | 32 | 72 | 6.4 | 12.9 | 0.00 | 0.00 | 0.00 | 44 | 1010.5 |
| 20260903201005 | 32 | 61 | 11.3 | 14.5 | 0.00 | 0.00 | 0.00 | 41 | 1010.5 |
| 20260903200005 | 32 | 29 | 9.7 | 11.3 | 0.00 | 0.00 | 0.00 | 41 | 1010.2 |
| 20260903195005 | 33 | 22 | 11.3 | 16.1 | 0.00 | 0.00 | 0.00 | 39 | 1010.1 |
| 20260903194005 | 34 | 22 | 12.9 | 19.3 | 0.00 | 0.00 | 0.00 | 34 | 1010.1 |
| 20260903193005 | 35 | 45 | 11.3 | 14.5 | 0.00 | 0.00 | 0.00 | 34 | 1009.9 |
| 20260903192006 | 35 | 45 | 12.9 | 16.1 | 0.00 | 0.00 | 0.00 | 30 | 1009.8 |
| 20260903190014 | 37 | 68 | 0.0 | 4.8 | 0.00 | 0.00 | 0.00 | 21 | 1009.7 |
| 20260903185008 | 37 | 61 | 0.0 | 0.0 | 0.00 | 0.00 | 0.00 | 22 | 1009.7 |
| 20260903184005 | 37 | 45 | 0.0 | 0.0 | 0.00 | 0.00 | 0.00 | 21 | 1009.7 |
| 20260903183006 | 38 | 45 | 4.8 | 8.0 | 0.00 | 0.00 | 0.00 | 23 | 1009.8 |
| 20260903182005 | 38 | 53 | 0.0 | 1.6 | 0.00 | 0.00 | 0.00 | 24 | 1009.9 |
| 20260903181005 | 39 | 42 | 1.6 | 4.8 | 0.00 | 0.00 | 0.00 | 23 | 1009.9 |
| 20260903180005 | 40 | 6 | 3.2 | 4.8 | 0.00 | 0.00 | 0.00 | 21 | 1009.9 |
| 20260903175005 | 41 | 6 | 0.0 | 4.8 | 0.00 | 0.00 | 0.00 | 20 | 1009.9 |
| 20260903174005 | 41 | 13 | 3.2 | 4.8 | 0.00 | 0.00 | 0.00 | 17 | 1009.9 |
| 20260903173005 | 42 | 354 | 3.2 | 8.0 | 0.00 | 0.00 | 0.00 | 16 | 1009.9 |
| 20260903172005 | 41 | 328 | 6.4 | 9.7 | 0.00 | 0.00 | 0.00 | 15 | 1010.0 |
| 20260903171005 | 41 | 330 | 4.8 | 9.7 | 0.00 | 0.00 | 0.00 | 16 | 1009.8 |
| 20260903170005 | 41 | 340 | 3.2 | 9.7 | 0.00 | 0.00 | 0.00 | 16 | 1009.9 |
| 20260903164005 | 42 | 356 | 4.8 | 9.7 | 0.00 | 0.00 | 0.00 | 15 | 1009.8 |
| 20260903163005 | 42 | 303 | 0.0 | 9.7 | 0.00 | 0.00 | 0.00 | 14 | 1010.0 |
| 20260903162005 | 42 | 338 | 6.4 | 9.7 | 0.00 | 0.00 | 0.00 | 13 | 1010.0 |
| 20260903161005 | 43 | 5 | 3.2 | 9.7 | 0.00 | 0.00 | 0.00 | 13 | 1010.1 |
| 20260903160004 | 42 | 358 | 4.8 | 11.3 | 0.00 | 0.00 | 0.00 | 13 | 1010.3 |
| 20260903155005 | 43 | 315 | 8.0 | 9.7 | 0.00 | 0.00 | 0.00 | 12 | 1010.3 |
| 20260903154005 | 43 | 299 | 4.8 | 9.7 | 0.00 | 0.00 | 0.00 | 11 | 1010.3 |
| 20260903153005 | 42 | 336 | 6.4 | 9.7 | 0.00 | 0.00 | 0.00 | 12 | 1010.4 |
| 20260903152005 | 43 | 285 | 1.6 | 9.7 | 0.00 | 0.00 | 0.00 | 12 | 1010.6 |
| 20260903151005 | 42 | 20 | 4.8 | 9.7 | 0.00 | 0.00 | 0.00 | 11 | 1010.8 |
| 20260903150006 | 42 | 340 | 4.8 | 11.3 | 0.00 | 0.00 | 0.00 | 12 | 1010.9 |